| time (UTC) | temp C | wind direction | speed KPH | gust KPH | rain 1hr cm | rain 24hr cm | rain mn cm | humidity % | barometer mb |
| 20260507195113 | 10 | 46 | 3.2 | 8.0 | 0.00 | 0.03 | 0.03 | 84 | 1018.0 |
| 20260507194111 | 10 | 39 | 3.2 | 6.4 | 0.00 | 0.03 | 0.03 | 84 | 1017.9 |
| 20260507193114 | 10 | 31 | 4.8 | 8.0 | 0.00 | 0.03 | 0.03 | 83 | 1017.8 |
| 20260507191114 | 11 | 12 | 3.2 | 6.4 | 0.00 | 0.03 | 0.03 | 80 | 1017.7 |
| 20260507190109 | 11 | 13 | 4.8 | 6.4 | 0.00 | 0.03 | 0.03 | 79 | 1017.7 |
| 20260507185111 | 11 | 12 | 4.8 | 8.0 | 0.00 | 0.03 | 0.03 | 77 | 1017.6 |
| 20260507184110 | 11 | 6 | 3.2 | 8.0 | 0.00 | 0.03 | 0.03 | 77 | 1017.6 |
| 20260507183114 | 11 | 353 | 3.2 | 8.0 | 0.00 | 0.03 | 0.03 | 76 | 1017.6 |
| 20260507182115 | 11 | 357 | 3.2 | 6.4 | 0.00 | 0.03 | 0.03 | 75 | 1017.6 |
| 20260507181107 | 11 | 1 | 3.2 | 6.4 | 0.00 | 0.03 | 0.03 | 74 | 1017.7 |
| 20260507180108 | 11 | 351 | 3.2 | 8.0 | 0.00 | 0.03 | 0.03 | 75 | 1017.6 |
| 20260507175112 | 12 | 348 | 4.8 | 6.4 | 0.00 | 0.03 | 0.03 | 75 | 1017.6 |
| 20260507174111 | 12 | 346 | 3.2 | 6.4 | 0.00 | 0.03 | 0.03 | 73 | 1017.6 |
| 20260507173110 | 12 | 349 | 3.2 | 8.0 | 0.00 | 0.03 | 0.03 | 72 | 1017.6 |
| 20260507171108 | 12 | 6 | 4.8 | 9.7 | 0.00 | 0.03 | 0.03 | 69 | 1017.5 |
| 20260507170112 | 12 | 9 | 4.8 | 8.0 | 0.00 | 0.03 | 0.03 | 67 | 1017.4 |
| 20260507165110 | 13 | 360 | 4.8 | 8.0 | 0.00 | 0.03 | 0.03 | 68 | 1017.4 |
| 20260507164111 | 13 | 4 | 4.8 | 9.7 | 0.00 | 0.03 | 0.03 | 67 | 1017.3 |
| 20260507163101 | 13 | 18 | 6.4 | 11.3 | 0.00 | 0.03 | 0.03 | 64 | 1017.3 |
| 20260507162103 | 13 | 13 | 4.8 | 9.7 | 0.00 | 0.03 | 0.03 | 67 | 1017.3 |
| 20260507161106 | 13 | 3 | 4.8 | 8.0 | 0.00 | 0.03 | 0.03 | 65 | 1017.3 |
| 20260507155103 | 13 | 15 | 4.8 | 9.7 | 0.00 | 0.03 | 0.03 | 67 | 1017.3 |
| 20260507151104 | 13 | 12 | 3.2 | 8.0 | 0.00 | 0.03 | 0.03 | 61 | 1017.3 |
| 20260507150058 | 13 | 13 | 4.8 | 12.9 | 0.00 | 0.03 | 0.03 | 60 | 1017.3 |
| 20260507145101 | 14 | 13 | 4.8 | 12.9 | 0.00 | 0.03 | 0.03 | 62 | 1017.4 |
| 20260507144100 | 14 | 23 | 6.4 | 12.9 | 0.00 | 0.03 | 0.03 | 63 | 1017.4 |
| 20260507143102 | 14 | 330 | 6.4 | 14.5 | 0.00 | 0.03 | 0.03 | 62 | 1017.3 |
| 20260507142059 | 14 | 15 | 8.0 | 14.5 | 0.00 | 0.03 | 0.03 | 66 | 1017.4 |
| 20260507141059 | 13 | 333 | 6.4 | 17.7 | 0.00 | 0.03 | 0.03 | 67 | 1017.5 |
| 20260507140107 | 13 | 333 | 6.4 | 17.7 | 0.00 | 0.03 | 0.03 | 67 | 1017.5 |
| 20260507135101 | 14 | 29 | 8.0 | 14.5 | 0.00 | 0.03 | 0.03 | 66 | 1017.5 |
| 20260507134058 | 14 | 11 | 4.8 | 9.7 | 0.00 | 0.03 | 0.03 | 70 | 1017.5 |
| 20260507133101 | 13 | 11 | 4.8 | 9.7 | 0.00 | 0.03 | 0.03 | 66 | 1017.5 |
| 20260507132100 | 13 | 52 | 4.8 | 9.7 | 0.00 | 0.03 | 0.03 | 64 | 1017.5 |
| 20260507131056 | 14 | 59 | 1.6 | 6.4 | 0.00 | 0.03 | 0.03 | 66 | 1017.5 |
| 20260507130101 | 13 | 59 | 1.6 | 6.4 | 0.00 | 0.03 | 0.03 | 65 | 1017.5 |
| 20260507124101 | 13 | 10 | 3.2 | 8.0 | 0.00 | 0.03 | 0.03 | 65 | 1017.6 |
| 20260507123102 | 13 | 20 | 3.2 | 8.0 | 0.00 | 0.03 | 0.03 | 64 | 1017.5 |
| 20260507121058 | 13 | 45 | 3.2 | 9.7 | 0.00 | 0.03 | 0.03 | 71 | 1017.5 |
| 20260507115102 | 13 | 4 | 4.8 | 9.7 | 0.00 | 0.03 | 0.03 | 67 | 1017.5 |
| 20260507114101 | 13 | 272 | 4.8 | 9.7 | 0.00 | 0.03 | 0.03 | 69 | 1017.4 |
| 20260507113100 | 13 | 1 | 4.8 | 9.7 | 0.00 | 0.03 | 0.03 | 70 | 1017.5 |
| 20260507112103 | 13 | 30 | 3.2 | 9.7 | 0.00 | 0.03 | 0.03 | 71 | 1017.5 |
| 20260507111101 | 13 | 20 | 4.8 | 8.0 | 0.00 | 0.03 | 0.03 | 72 | 1017.6 |
| 20260507110100 | 13 | 353 | 3.2 | 8.0 | 0.00 | 0.03 | 0.03 | 75 | 1017.7 |
| 20260507105100 | 12 | 351 | 3.2 | 9.7 | 0.00 | 0.03 | 0.03 | 74 | 1017.7 |
| 20260507104058 | 12 | 354 | 4.8 | 12.9 | 0.00 | 0.03 | 0.03 | 74 | 1017.7 |
| 20260507103101 | 12 | 354 | 4.8 | 12.9 | 0.00 | 0.03 | 0.03 | 72 | 1017.7 |
| 20260507102059 | 13 | 10 | 4.8 | 8.0 | 0.00 | 0.03 | 0.03 | 72 | 1017.7 |
| 20260507101101 | 12 | 346 | 4.8 | 11.3 | 0.00 | 0.03 | 0.03 | 76 | 1017.7 |
| 20260507100058 | 12 | 346 | 4.8 | 11.3 | 0.00 | 0.03 | 0.03 | 74 | 1017.6 |
| 20260507095058 | 12 | 341 | 4.8 | 8.0 | 0.00 | 0.03 | 0.03 | 76 | 1017.5 |
| 20260507094059 | 12 | 1 | 4.8 | 12.9 | 0.00 | 0.03 | 0.03 | 76 | 1017.6 |
| 20260507093059 | 11 | 1 | 4.8 | 12.9 | 0.00 | 0.03 | 0.03 | 78 | 1017.5 |
| 20260507092059 | 11 | 336 | 4.8 | 9.7 | 0.00 | 0.03 | 0.03 | 77 | 1017.5 |
| 20260507091059 | 11 | 327 | 4.8 | 11.3 | 0.00 | 0.03 | 0.03 | 78 | 1017.5 |
| 20260507085057 | 11 | 297 | 4.8 | 9.7 | 0.00 | 0.05 | 0.03 | 77 | 1017.4 |
| 20260507084059 | 11 | 297 | 4.8 | 9.7 | 0.00 | 0.05 | 0.03 | 79 | 1017.4 |
| 20260507083102 | 10 | 290 | 4.8 | 9.7 | 0.00 | 0.05 | 0.03 | 79 | 1017.4 |
| 20260507082057 | 10 | 284 | 3.2 | 8.0 | 0.00 | 0.05 | 0.03 | 80 | 1017.3 |
| 20260507081102 | 10 | 284 | 3.2 | 8.0 | 0.00 | 0.05 | 0.03 | 79 | 1017.3 |
| 20260507080057 | 10 | 296 | 3.2 | 6.4 | 0.00 | 0.05 | 0.03 | 81 | 1017.2 |
| 20260507074100 | 10 | 130 | 3.2 | 6.4 | 0.00 | 0.08 | 0.03 | 82 | 1017.1 |
| 20260507073059 | 10 | 257 | 1.6 | 4.8 | 0.00 | 0.10 | 0.03 | 84 | 1017.1 |
| 20260507072058 | 10 | 261 | 1.6 | 4.8 | 0.00 | 0.13 | 0.03 | 84 | 1017.0 |
| 20260507071057 | 10 | 253 | 1.6 | 4.8 | 0.00 | 0.13 | 0.03 | 87 | 1017.0 |
| 20260507070056 | 9 | 261 | 3.2 | 6.4 | 0.00 | 0.15 | 0.03 | 87 | 1016.9 |
| 20260507065055 | 9 | 255 | 3.2 | 6.4 | 0.00 | 0.15 | 0.03 | 90 | 1016.9 |
| 20260507064054 | 8 | 260 | 3.2 | 6.4 | 0.00 | 0.15 | 0.03 | 91 | 1016.8 |
| 20260507063054 | 8 | 265 | 3.2 | 8.0 | 0.00 | 0.20 | 0.03 | 92 | 1016.8 |
| 20260507061058 | 8 | 265 | 3.2 | 8.0 | 0.00 | 0.23 | 0.03 | 95 | 1016.7 |
| 20260507060055 | 8 | 274 | 4.8 | 8.0 | 0.00 | 0.23 | 0.03 | 97 | 1016.5 |
| 20260507055052 | 8 | 288 | 3.2 | 8.0 | 0.00 | 0.30 | 0.03 | 98 | 1016.4 |
| 20260507054056 | 7 | 284 | 3.2 | 8.0 | 0.00 | 0.33 | 0.03 | 98 | 1016.4 |
| 20260507053052 | 7 | 287 | 3.2 | 6.4 | 0.00 | 0.36 | 0.03 | 98 | 1016.4 |
| 20260507052055 | 7 | 294 | 1.6 | 4.8 | 0.00 | 0.38 | 0.03 | 99 | 1016.3 |
| 20260507051057 | 7 | 289 | 1.6 | 4.8 | 0.00 | 0.41 | 0.03 | 10 | 1016.2 |
| 20260507045057 | 7 | 260 | 1.6 | 4.8 | 0.00 | 0.48 | 0.03 | 10 | 1016.0 |
| 20260507044059 | 7 | 235 | 0.0 | 3.2 | 0.00 | 0.51 | 0.03 | 10 | 1015.9 |
| 20260507043056 | 7 | 285 | 1.6 | 3.2 | 0.00 | 0.51 | 0.03 | 10 | 1015.9 |
| 20260507042056 | 7 | 282 | 1.6 | 3.2 | 0.00 | 0.53 | 0.03 | 10 | 1015.8 |
| 20260507040056 | 7 | 303 | 0.0 | 1.6 | 0.00 | 0.61 | 0.03 | 10 | 1015.7 |
| 20260507035057 | 7 | 311 | 0.0 | 1.6 | 0.00 | 0.61 | 0.03 | 10 | 1015.7 |
| 20260507034056 | 7 | 298 | 0.0 | 1.6 | 0.00 | 0.64 | 0.03 | 10 | 1015.6 |
| 20260507033053 | 7 | 296 | 0.0 | 0.0 | 0.00 | 0.66 | 0.03 | 10 | 1015.5 |
| 20260507032056 | 7 | 296 | 0.0 | 0.0 | 0.03 | 0.69 | 0.03 | 10 | 1015.5 |
| 20260507031054 | 7 | 296 | 0.0 | 3.2 | 0.03 | 0.71 | 0.03 | 10 | 1015.5 |
| 20260507030056 | 7 | 303 | 1.6 | 3.2 | 0.03 | 0.71 | 0.03 | 99 | 1015.5 |
| 20260507025054 | 7 | 323 | 0.0 | 3.2 | 0.03 | 0.71 | 0.03 | 99 | 1015.4 |
| 20260507023051 | 7 | 22 | 1.6 | 4.8 | 0.03 | 0.76 | 0.03 | 99 | 1015.3 |
| 20260507022057 | 7 | 22 | 1.6 | 4.8 | 0.03 | 0.79 | 0.03 | 98 | 1015.3 |
| 20260507021056 | 7 | 34 | 3.2 | 8.0 | 0.00 | 0.76 | 0.00 | 97 | 1015.3 |
| 20260507020055 | 7 | 20 | 4.8 | 8.0 | 0.00 | 0.79 | 0.00 | 97 | 1015.2 |
| 20260507015055 | 7 | 9 | 1.6 | 4.8 | 0.00 | 0.79 | 0.00 | 98 | 1015.1 |
| 20260507014057 | 7 | 13 | 1.6 | 3.2 | 0.00 | 0.81 | 0.00 | 99 | 1015.1 |
| 20260507012053 | 7 | 357 | 1.6 | 4.8 | 0.00 | 0.86 | 0.00 | 99 | 1015.1 |
| 20260507011058 | 7 | 357 | 1.6 | 4.8 | 0.00 | 0.89 | 0.00 | 99 | 1015.0 |
| 20260507010058 | 7 | 6 | 1.6 | 4.8 | 0.00 | 0.91 | 0.00 | 99 | 1015.0 |
| 20260507005055 | 7 | 14 | 3.2 | 6.4 | 0.00 | 0.94 | 0.00 | 99 | 1014.9 |
| 20260507004056 | 7 | 14 | 3.2 | 6.4 | 0.00 | 0.99 | 0.00 | 98 | 1014.9 |
| 20260507003057 | 7 | 14 | 3.2 | 6.4 | 0.00 | 0.99 | 0.00 | 98 | 1014.9 |
| 20260507002057 | 7 | 19 | 3.2 | 4.8 | 0.00 | 0.99 | 0.00 | 99 | 1014.8 |
| 20260507001056 | 7 | 23 | 3.2 | 6.4 | 0.00 | 1.02 | 0.00 | 99 | 1014.8 |
| 20260507000101 | 7 | 23 | 3.2 | 6.4 | 0.00 | 1.04 | 0.00 | 99 | 1014.7 |
| 20260506235106 | 7 | 22 | 3.2 | 6.4 | 0.00 | 1.07 | 0.00 | 99 | 1014.7 |
| 20260506234105 | 7 | 22 | 3.2 | 8.0 | 0.00 | 1.09 | 0.00 | 99 | 1014.7 |
| 20260506233106 | 7 | 19 | 3.2 | 8.0 | 0.00 | 1.09 | 0.00 | 99 | 1014.6 |
| 20260506232104 | 7 | 21 | 3.2 | 6.4 | 0.00 | 1.09 | 0.00 | 99 | 1014.5 |
| 20260506231104 | 7 | 19 | 4.8 | 8.0 | 0.00 | 1.12 | 0.00 | 99 | 1014.5 |
| 20260506230106 | 7 | 10 | 4.8 | 9.7 | 0.00 | 1.14 | 0.00 | 98 | 1014.4 |
| 20260506225103 | 6 | 10 | 4.8 | 8.0 | 0.00 | 1.14 | 0.00 | 99 | 1014.3 |
| 20260506224105 | 6 | 1 | 4.8 | 8.0 | 0.00 | 1.17 | 0.00 | 98 | 1014.2 |
| 20260506223106 | 6 | 358 | 4.8 | 9.7 | 0.00 | 1.17 | 0.00 | 98 | 1014.2 |
| 20260506220116 | 6 | 349 | 4.8 | 9.7 | 0.00 | 1.27 | 0.00 | 97 | 1014.1 |
| 20260506215114 | 6 | 349 | 4.8 | 9.7 | 0.00 | 1.30 | 1.27 | 96 | 1014.1 |
| 20260506213110 | 6 | 341 | 6.4 | 9.7 | 0.00 | 1.35 | 1.27 | 94 | 1014.0 |
| 20260506211112 | 7 | 339 | 6.4 | 12.9 | 0.00 | 1.37 | 1.27 | 92 | 1013.7 |
| 20260506210111 | 7 | 346 | 4.8 | 11.3 | 0.00 | 1.42 | 1.27 | 91 | 1013.6 |
| 20260506205109 | 7 | 350 | 6.4 | 11.3 | 0.00 | 1.47 | 1.27 | 91 | 1013.5 |
| 20260506204109 | 7 | 349 | 6.4 | 14.5 | 0.00 | 1.47 | 1.27 | 90 | 1013.4 |
| 20260506202112 | 8 | 355 | 6.4 | 14.5 | 0.00 | 1.50 | 1.27 | 89 | 1013.3 |
| 20260506201114 | 8 | 350 | 4.8 | 9.7 | 0.00 | 1.55 | 1.27 | 88 | 1013.2 |
| 20260506200112 | 8 | 350 | 4.8 | 9.7 | 0.00 | 1.55 | 1.27 | 88 | 1013.1 |